FIN23B EFHK-LEPA

Flight info

Callsign FIN23B
Flight time 3h 37m
Altitude 38000
Route VALOX DCT DANKA DCT ROSAX DCT LEMSI DCT DEREX DCT ANFEV DCT PENOR DCT LATAG/N0446F360 DCT BUDEX DCT DETSA/N0439F350 DCT PIDAD DCT TALEP DCT RARQU DCT BALEN UT250 RIXOT
Aircraft A319/M-SDE1E2E3FGIM1RWXYZ/LB1

Departure

Time 2026-04-20 18:17
Airport Helsinki Vantaa Airport (EFHK)

Arrival

Time 2026-04-20 21:54
Airport Palma de Mallorca Airport (LEPA)
Time Latitude Longitude Altitude Speed Heading
2026-04-20 17:36 60.31823 24.97037 167 ft 0 kts 243°
2026-04-20 18:09 60.31828 24.97059 166 ft 3 kts 243°
2026-04-20 18:09 60.31838 24.97095 166 ft 3 kts 245°
2026-04-20 18:10 60.31845 24.97132 166 ft 3 kts 257°
2026-04-20 18:10 60.31847 24.97167 166 ft 3 kts 313°
2026-04-20 18:10 60.31843 24.97175 166 ft 0 kts 333°
2026-04-20 18:12 60.31848 24.97171 166 ft 2 kts 332°
2026-04-20 18:12 60.31878 24.97139 166 ft 7 kts 333°
2026-04-20 18:13 60.31940 24.97075 166 ft 13 kts 333°
2026-04-20 18:13 60.32034 24.96978 166 ft 18 kts 333°
2026-04-20 18:13 60.32147 24.96846 166 ft 19 kts 329°
2026-04-20 18:13 60.32248 24.96696 167 ft 16 kts 277°
2026-04-20 18:14 60.32186 24.96531 168 ft 15 kts 229°
2026-04-20 18:14 60.32105 24.96348 168 ft 20 kts 228°
2026-04-20 18:14 60.32007 24.96135 168 ft 22 kts 227°
2026-04-20 18:14 60.31900 24.95895 170 ft 24 kts 228°
2026-04-20 18:15 60.31779 24.95631 170 ft 27 kts 227°
2026-04-20 18:15 60.31649 24.95346 170 ft 29 kts 228°
2026-04-20 18:15 60.31507 24.95033 169 ft 32 kts 228°
2026-04-20 18:15 60.31407 24.94810 165 ft 17 kts 232°
2026-04-20 18:16 60.31455 24.94617 164 ft 18 kts 318°
2026-04-20 18:16 60.31543 24.94541 164 ft 10 kts 38°
2026-04-20 18:16 60.31580 24.94627 165 ft 0 kts 47°
2026-04-20 18:16 60.31588 24.94643 165 ft 17 kts 47°
2026-04-20 18:17 60.31857 24.95233 174 ft 94 kts 47°
2026-04-20 18:17 60.32454 24.96528 201 ft 153 kts 45°
2026-04-20 18:17 60.33154 24.98161 815 ft 153 kts 48°
2026-04-20 18:17 60.33821 24.99799 1630 ft 148 kts 48°
2026-04-20 18:18 60.34530 25.01372 2233 ft 160 kts 45°
2026-04-20 18:18 60.35337 25.03097 2624 ft 182 kts 45°
2026-04-20 18:18 60.36266 25.05089 3037 ft 207 kts 45°
2026-04-20 18:18 60.37307 25.07340 3589 ft 231 kts 46°
2026-04-20 18:19 60.38432 25.09794 4431 ft 242 kts 47°
2026-04-20 18:19 60.39293 25.12747 5360 ft 252 kts 76°
2026-04-20 18:19 60.39176 25.16284 6343 ft 262 kts 103°
2026-04-20 18:19 60.38509 25.19750 7363 ft 266 kts 111°
2026-04-20 18:20 60.37673 25.23123 8355 ft 270 kts 114°
2026-04-20 18:20 60.36788 25.26499 9340 ft 273 kts 114°
2026-04-20 18:20 60.35902 25.29913 10299 ft 276 kts 112°
2026-04-20 18:20 60.34889 25.33251 11151 ft 285 kts 126°
2026-04-20 18:21 60.33337 25.35873 12014 ft 298 kts 145°
2026-04-20 18:21 60.31331 25.37464 12454 ft 327 kts 165°
2026-04-20 18:21 60.28990 25.37500 12857 ft 354 kts 188°
2026-04-20 18:21 60.26660 25.35703 13560 ft 367 kts 211°
2026-04-20 18:22 60.24742 25.32230 14301 ft 374 kts 229°
2026-04-20 18:22 60.23028 25.28252 15017 ft 378 kts 229°
2026-04-20 18:22 60.21309 25.24197 15732 ft 382 kts 230°
2026-04-20 18:22 60.19580 25.20097 16439 ft 387 kts 230°
2026-04-20 18:23 60.17831 25.15959 17136 ft 391 kts 229°
2026-04-20 18:23 60.16051 25.11768 17842 ft 395 kts 229°
2026-04-20 18:23 60.14249 25.07545 18552 ft 399 kts 229°
2026-04-20 18:23 60.12446 25.03346 19145 ft 403 kts 229°
2026-04-20 18:24 60.10601 24.99074 19716 ft 408 kts 228°
2026-04-20 18:24 60.08731 24.94754 20316 ft 412 kts 228°
2026-04-20 18:24 60.06837 24.90394 20906 ft 416 kts 228°
2026-04-20 18:24 60.04918 24.85986 21494 ft 421 kts 228°
2026-04-20 18:25 60.02984 24.81543 22081 ft 425 kts 228°
2026-04-20 18:25 60.01055 24.77115 22648 ft 430 kts 227°
2026-04-20 18:25 59.99082 24.72588 23225 ft 434 kts 227°
2026-04-20 18:25 59.97088 24.68007 23781 ft 438 kts 227°
2026-04-20 18:26 59.95077 24.63390 24266 ft 442 kts 227°
2026-04-20 18:26 59.93046 24.58747 24733 ft 446 kts 227°
2026-04-20 18:26 59.90997 24.54071 25197 ft 449 kts 227°
2026-04-20 18:26 59.88930 24.49364 25660 ft 452 kts 227°
2026-04-20 18:27 59.86846 24.44640 26121 ft 455 kts 227°
2026-04-20 18:27 59.84745 24.39900 26565 ft 458 kts 226°
2026-04-20 18:27 59.82626 24.35131 27009 ft 461 kts 226°
2026-04-20 18:27 59.80516 24.30389 27440 ft 465 kts 226°
2026-04-20 18:28 59.78369 24.25560 27874 ft 468 kts 226°
2026-04-20 18:28 59.76202 24.20695 28308 ft 471 kts 226°
2026-04-20 18:28 59.74000 24.15870 28731 ft 473 kts 223°
2026-04-20 18:28 59.71529 24.11562 29148 ft 473 kts 213°
2026-04-20 18:29 59.68849 24.07758 29559 ft 475 kts 211°
2026-04-20 18:29 59.66147 24.03957 29973 ft 478 kts 211°
2026-04-20 18:29 59.63425 24.00131 30364 ft 481 kts 211°
2026-04-20 18:29 59.60694 23.96293 30704 ft 484 kts 211°
2026-04-20 18:30 59.57946 23.92425 31044 ft 486 kts 211°
2026-04-20 18:30 59.55188 23.88543 31397 ft 488 kts 211°
2026-04-20 18:30 59.52457 23.84707 31731 ft 489 kts 211°
2026-04-20 18:30 59.49674 23.80796 32084 ft 491 kts 212°
2026-04-20 18:31 59.47041 23.76483 32551 ft 494 kts 221°
2026-04-20 18:31 59.44675 23.71567 33030 ft 494 kts 225°
2026-04-20 18:31 59.42360 23.66584 33503 ft 492 kts 225°
2026-04-20 18:31 59.40046 23.61629 33981 ft 491 kts 225°
2026-04-20 18:32 59.37734 23.56704 34443 ft 489 kts 224°
2026-04-20 18:32 59.35419 23.51799 34844 ft 488 kts 225°
2026-04-20 18:32 59.33146 23.46997 35237 ft 487 kts 225°
2026-04-20 18:32 59.30846 23.42145 35614 ft 485 kts 225°
2026-04-20 18:33 59.28549 23.37297 35968 ft 484 kts 225°
2026-04-20 18:33 59.26260 23.32466 36310 ft 483 kts 225°
2026-04-20 18:33 59.23971 23.27642 36632 ft 483 kts 225°
2026-04-20 18:33 59.21689 23.22839 36941 ft 482 kts 226°
2026-04-20 18:34 59.19403 23.18047 37261 ft 481 kts 226°
2026-04-20 18:34 59.17126 23.13282 37546 ft 480 kts 226°
2026-04-20 18:34 59.14840 23.08507 37831 ft 480 kts 226°
2026-04-20 18:34 59.12565 23.03767 38106 ft 479 kts 226°
2026-04-20 18:35 59.11057 23.00631 38264 ft 480 kts 226°
2026-04-20 18:35 59.08771 22.95898 38331 ft 479 kts 226°
2026-04-20 18:35 59.03455 22.84952 38327 ft 478 kts 226°
2026-04-20 18:36 58.98896 22.75570 38330 ft 478 kts 226°
2026-04-20 18:36 58.95046 22.67675 38330 ft 484 kts 226°
2026-04-20 18:37 58.90422 22.58266 38329 ft 486 kts 225°
2026-04-20 18:37 58.85736 22.48787 38331 ft 487 kts 225°
2026-04-20 18:38 58.81049 22.39331 38338 ft 487 kts 225°
2026-04-20 18:38 58.76379 22.29939 38343 ft 487 kts 225°
2026-04-20 18:39 58.71679 22.20533 38341 ft 487 kts 225°
2026-04-20 18:39 58.66972 22.11160 38346 ft 486 kts 225°
2026-04-20 18:40 58.62266 22.01812 38347 ft 486 kts 225°
2026-04-20 18:40 58.57558 21.92500 38349 ft 486 kts 225°
2026-04-20 18:41 58.52859 21.83249 38349 ft 486 kts 225°
2026-04-20 18:41 58.48135 21.73986 38357 ft 486 kts 225°
2026-04-20 18:42 58.43411 21.64758 38357 ft 485 kts 225°
2026-04-20 18:42 58.38680 21.55562 38353 ft 485 kts 224°
2026-04-20 18:43 58.33978 21.46454 38348 ft 484 kts 224°
2026-04-20 18:43 58.29245 21.37317 38350 ft 484 kts 224°
2026-04-20 18:44 58.24502 21.28223 38346 ft 484 kts 224°
2026-04-20 18:44 58.19776 21.19185 38347 ft 484 kts 224°
2026-04-20 18:45 58.15024 21.10110 38350 ft 484 kts 224°
2026-04-20 18:45 58.10269 21.01071 38346 ft 484 kts 224°
2026-04-20 18:46 58.05502 20.92062 38352 ft 484 kts 224°
2026-04-20 18:46 58.00722 20.83064 38352 ft 484 kts 224°
2026-04-20 18:47 57.95946 20.74109 38350 ft 484 kts 224°
2026-04-20 18:47 57.91156 20.65170 38349 ft 484 kts 224°
2026-04-20 18:48 57.86375 20.56268 38352 ft 484 kts 224°
2026-04-20 18:48 57.81607 20.47425 38354 ft 484 kts 224°
2026-04-20 18:49 57.76799 20.38550 38354 ft 484 kts 223°
2026-04-20 18:49 57.72003 20.29737 38354 ft 483 kts 223°
2026-04-20 18:50 57.67191 20.20949 38354 ft 483 kts 223°
2026-04-20 18:50 57.62297 20.12454 38355 ft 482 kts 221°
2026-04-20 18:51 57.57266 20.04174 38351 ft 482 kts 220°
2026-04-20 18:51 57.52225 19.95918 38349 ft 481 kts 220°
2026-04-20 18:52 57.47251 19.87653 38348 ft 482 kts 221°
2026-04-20 18:52 57.42254 19.79337 38345 ft 482 kts 220°
2026-04-20 18:53 57.37259 19.71097 38347 ft 482 kts 220°
2026-04-20 18:53 57.32234 19.62846 38352 ft 482 kts 220°
2026-04-20 18:54 57.27207 19.54618 38351 ft 482 kts 220°
2026-04-20 18:54 57.22178 19.46416 38350 ft 482 kts 220°
2026-04-20 18:55 57.17138 19.38226 38350 ft 482 kts 220°
2026-04-20 18:55 57.12118 19.30104 38349 ft 482 kts 220°
2026-04-20 18:56 57.07067 19.21965 38349 ft 482 kts 220°
2026-04-20 18:56 57.02015 19.13864 38351 ft 482 kts 220°
2026-04-20 18:57 56.96958 19.05781 38347 ft 482 kts 220°
2026-04-20 18:57 56.91905 18.97719 38346 ft 482 kts 220°
2026-04-20 18:58 56.86862 18.89709 38348 ft 482 kts 220°
2026-04-20 18:58 56.81792 18.81679 38346 ft 482 kts 220°
2026-04-20 18:59 56.76711 18.73664 38349 ft 482 kts 220°
2026-04-20 18:59 56.71655 18.65733 38353 ft 482 kts 220°
2026-04-20 19:00 56.66555 18.57753 38346 ft 482 kts 220°
2026-04-20 19:00 56.61455 18.49797 38344 ft 482 kts 220°
2026-04-20 19:01 56.56347 18.41869 38346 ft 482 kts 219°
2026-04-20 19:01 56.51276 18.34032 38343 ft 482 kts 219°
2026-04-20 19:02 56.46159 18.26148 38341 ft 482 kts 219°
2026-04-20 19:02 56.41040 18.18289 38336 ft 482 kts 219°
2026-04-20 19:03 56.35926 18.10456 38334 ft 482 kts 219°
2026-04-20 19:03 56.30838 18.02686 38338 ft 481 kts 219°
2026-04-20 19:04 56.25714 17.94903 38339 ft 481 kts 219°
2026-04-20 19:04 56.20586 17.87139 38339 ft 481 kts 219°
2026-04-20 19:05 56.15462 17.79411 38338 ft 481 kts 219°
2026-04-20 19:05 56.10327 17.71700 38341 ft 481 kts 219°
2026-04-20 19:06 56.05222 17.64045 38338 ft 481 kts 219°
2026-04-20 19:06 56.00079 17.56383 38335 ft 480 kts 219°
2026-04-20 19:07 55.94945 17.48756 38330 ft 480 kts 219°
2026-04-20 19:07 55.89807 17.41138 38329 ft 480 kts 219°
2026-04-20 19:08 55.82125 17.29815 38331 ft 479 kts 219°
2026-04-20 19:09 55.76536 17.23458 38328 ft 476 kts 202°
2026-04-20 19:09 55.70286 17.19724 38324 ft 474 kts 195°
2026-04-20 19:10 55.63981 17.16239 38324 ft 474 kts 195°
2026-04-20 19:10 55.57602 17.13320 38316 ft 473 kts 191°
2026-04-20 19:11 55.51197 17.10975 38315 ft 472 kts 189°
2026-04-20 19:11 55.44750 17.08616 38314 ft 472 kts 190°
2026-04-20 19:12 55.38322 17.06103 38314 ft 473 kts 191°
2026-04-20 19:12 55.31932 17.03551 38306 ft 472 kts 191°
2026-04-20 19:13 55.25509 17.01018 38302 ft 472 kts 191°
2026-04-20 19:13 55.19089 16.98523 38296 ft 472 kts 191°
2026-04-20 19:14 55.12664 16.96051 38288 ft 473 kts 191°
2026-04-20 19:14 55.06237 16.93572 38285 ft 473 kts 191°
2026-04-20 19:15 54.99856 16.91099 38282 ft 473 kts 191°
2026-04-20 19:15 54.93409 16.88624 38287 ft 473 kts 191°
2026-04-20 19:16 54.86965 16.86166 38278 ft 474 kts 191°
2026-04-20 19:16 54.80508 16.83693 38279 ft 475 kts 191°
2026-04-20 19:17 54.74087 16.81247 38279 ft 475 kts 191°
2026-04-20 19:17 54.67588 16.78783 38284 ft 475 kts 191°
2026-04-20 19:18 54.61121 16.76343 38296 ft 475 kts 191°
2026-04-20 19:18 54.54696 16.73936 38287 ft 475 kts 191°
2026-04-20 19:19 54.48235 16.71519 38284 ft 475 kts 191°
2026-04-20 19:19 54.41781 16.69089 38279 ft 474 kts 192°
2026-04-20 19:20 54.35326 16.66673 38276 ft 473 kts 192°
2026-04-20 19:20 54.28923 16.64303 38273 ft 473 kts 192°
2026-04-20 19:21 54.22479 16.61931 38268 ft 473 kts 192°
2026-04-20 19:21 54.16082 16.59573 38265 ft 473 kts 192°
2026-04-20 19:22 54.09638 16.57185 38260 ft 473 kts 192°
2026-04-20 19:22 54.03197 16.54815 38253 ft 473 kts 192°
2026-04-20 19:23 53.97853 16.52859 38246 ft 473 kts 192°
2026-04-20 19:23 53.91398 16.50497 38243 ft 473 kts 192°
2026-04-20 19:24 53.84977 16.48161 38239 ft 474 kts 192°
2026-04-20 19:24 53.77469 16.45443 38240 ft 474 kts 192°
2026-04-20 19:25 53.72055 16.43487 38238 ft 474 kts 192°
2026-04-20 19:25 53.65597 16.41162 38232 ft 474 kts 192°
2026-04-20 19:26 53.59179 16.38856 38237 ft 474 kts 192°
2026-04-20 19:26 53.52703 16.36530 38226 ft 474 kts 192°
2026-04-20 19:27 53.46270 16.34234 38227 ft 475 kts 192°
2026-04-20 19:27 53.39799 16.31933 38221 ft 475 kts 192°
2026-04-20 19:28 53.33331 16.29635 38213 ft 474 kts 192°
2026-04-20 19:28 53.26907 16.27365 38213 ft 474 kts 192°
2026-04-20 19:29 53.20443 16.25098 38206 ft 475 kts 192°
2026-04-20 19:29 53.13973 16.22824 38200 ft 474 kts 192°
2026-04-20 19:30 53.07507 16.20557 38190 ft 474 kts 192°
2026-04-20 19:30 53.01039 16.18288 38184 ft 475 kts 192°
2026-04-20 19:31 52.94571 16.16023 38178 ft 475 kts 192°
2026-04-20 19:31 52.88095 16.13786 38175 ft 475 kts 192°
2026-04-20 19:32 52.81659 16.11570 38172 ft 475 kts 192°
2026-04-20 19:32 52.75174 16.09330 38174 ft 474 kts 192°
2026-04-20 19:33 52.68753 16.07118 38174 ft 473 kts 192°
2026-04-20 19:33 52.62305 16.04902 38167 ft 473 kts 192°
2026-04-20 19:34 52.55858 16.02697 38163 ft 472 kts 192°
2026-04-20 19:34 52.49455 16.00515 38158 ft 472 kts 192°
2026-04-20 19:35 52.43028 15.98335 38155 ft 471 kts 192°
2026-04-20 19:35 52.36599 15.96154 38153 ft 471 kts 192°
2026-04-20 19:36 52.30164 15.93982 38148 ft 471 kts 192°
2026-04-20 19:36 52.23777 15.91829 38148 ft 471 kts 192°
2026-04-20 19:37 52.17343 15.89660 38148 ft 470 kts 192°
2026-04-20 19:37 52.10935 15.87501 38152 ft 470 kts 192°
2026-04-20 19:38 52.04555 15.85373 38147 ft 470 kts 192°
2026-04-20 19:38 51.98141 15.83252 38139 ft 470 kts 192°
2026-04-20 19:39 51.91719 15.81123 38141 ft 470 kts 192°
2026-04-20 19:39 51.85351 15.79013 38130 ft 470 kts 192°
2026-04-20 19:40 51.78931 15.76899 38123 ft 469 kts 192°
2026-04-20 19:40 51.72533 15.74756 38118 ft 469 kts 195°
2026-04-20 19:41 51.66325 15.71510 38113 ft 468 kts 199°
2026-04-20 19:41 51.60178 15.68184 38108 ft 468 kts 199°
2026-04-20 19:42 51.53995 15.64866 38109 ft 468 kts 199°
2026-04-20 19:42 51.47799 15.61558 38105 ft 468 kts 199°
2026-04-20 19:43 51.41638 15.58271 38107 ft 468 kts 199°
2026-04-20 19:43 51.35439 15.54954 38101 ft 469 kts 199°
2026-04-20 19:44 51.29244 15.51657 38101 ft 468 kts 199°
2026-04-20 19:44 51.23053 15.48377 38098 ft 468 kts 199°
2026-04-20 19:45 51.16896 15.45127 38101 ft 469 kts 199°
2026-04-20 19:45 51.10688 15.41861 38102 ft 469 kts 199°
2026-04-20 19:46 51.04484 15.38609 38102 ft 469 kts 199°
2026-04-20 19:46 50.98314 15.35379 38091 ft 468 kts 199°
2026-04-20 19:47 50.92124 15.32145 38091 ft 468 kts 199°
2026-04-20 19:47 50.85928 15.28915 38088 ft 468 kts 200°
2026-04-20 19:48 50.79775 15.25713 38090 ft 468 kts 199°
2026-04-20 19:48 50.73579 15.22500 38087 ft 468 kts 200°
2026-04-20 19:49 50.67386 15.19299 38087 ft 468 kts 200°
2026-04-20 19:49 50.61205 15.16120 38078 ft 468 kts 200°
2026-04-20 19:50 50.55030 15.12959 38076 ft 468 kts 200°
2026-04-20 19:50 50.48840 15.09778 38077 ft 468 kts 200°
2026-04-20 19:51 50.42627 15.06598 38075 ft 468 kts 200°
2026-04-20 19:51 50.36431 15.03448 38065 ft 468 kts 200°
2026-04-20 19:52 50.30259 15.00321 38068 ft 469 kts 200°
2026-04-20 19:52 50.24050 14.97166 38070 ft 468 kts 200°
2026-04-20 19:53 50.17855 14.94025 38072 ft 468 kts 200°
2026-04-20 19:53 50.11637 14.90898 38076 ft 468 kts 200°
2026-04-20 19:54 50.05431 14.87792 38073 ft 468 kts 200°
2026-04-20 19:54 49.99267 14.84699 38073 ft 468 kts 200°
2026-04-20 19:55 49.93051 14.81585 38073 ft 468 kts 200°
2026-04-20 19:55 49.86874 14.78517 38072 ft 468 kts 200°
2026-04-20 19:56 49.81713 14.75960 38075 ft 468 kts 200°
2026-04-20 19:56 49.74461 14.72352 38076 ft 468 kts 200°
2026-04-20 19:57 49.68284 14.69297 38080 ft 468 kts 200°
2026-04-20 19:57 49.62071 14.66231 38082 ft 468 kts 200°
2026-04-20 19:58 49.55889 14.63191 38085 ft 468 kts 201°
2026-04-20 19:58 49.49674 14.60147 38084 ft 468 kts 201°
2026-04-20 19:59 49.43460 14.57098 38082 ft 468 kts 201°
2026-04-20 19:59 49.37294 14.54097 38089 ft 468 kts 201°
2026-04-20 20:00 49.31061 14.51071 38086 ft 467 kts 201°
2026-04-20 20:00 49.24869 14.48063 38081 ft 467 kts 201°
2026-04-20 20:01 49.18675 14.45055 38085 ft 466 kts 201°
2026-04-20 20:01 49.12531 14.42091 38087 ft 466 kts 201°
2026-04-20 20:02 49.06339 14.39118 38086 ft 466 kts 201°
2026-04-20 20:02 49.00138 14.36140 38088 ft 466 kts 201°
2026-04-20 20:03 48.94091 14.32694 38088 ft 460 kts 212°
2026-04-20 20:03 48.88761 14.27488 38100 ft 456 kts 218°
2026-04-20 20:04 48.83456 14.22161 38094 ft 456 kts 217°
2026-04-20 20:04 48.78151 14.16870 38093 ft 455 kts 217°
2026-04-20 20:05 48.72887 14.11620 38090 ft 455 kts 218°
2026-04-20 20:05 48.67595 14.06339 38088 ft 454 kts 218°
2026-04-20 20:06 48.62306 14.01082 38089 ft 454 kts 218°
2026-04-20 20:06 48.57015 13.95848 38085 ft 454 kts 217°
2026-04-20 20:07 48.51748 13.90662 38088 ft 453 kts 218°
2026-04-20 20:07 48.46474 13.85470 38087 ft 453 kts 218°
2026-04-20 20:08 48.41195 13.80273 38084 ft 452 kts 218°
2026-04-20 20:08 48.35966 13.75144 38085 ft 452 kts 218°
2026-04-20 20:09 48.30690 13.69997 38085 ft 451 kts 218°
2026-04-20 20:09 48.25430 13.64871 38081 ft 451 kts 218°
2026-04-20 20:10 48.20189 13.59770 38075 ft 450 kts 218°
2026-04-20 20:10 48.14929 13.54663 38079 ft 450 kts 218°
2026-04-20 20:11 48.09701 13.49606 38067 ft 449 kts 218°
2026-04-20 20:11 48.04444 13.44531 38069 ft 449 kts 218°
2026-04-20 20:12 48.00076 13.40322 38066 ft 448 kts 218°
2026-04-20 20:12 47.93969 13.34452 38079 ft 448 kts 218°
2026-04-20 20:13 47.86950 13.27739 38089 ft 447 kts 218°
2026-04-20 20:13 47.81742 13.22758 38104 ft 447 kts 218°
2026-04-20 20:14 47.76505 13.17751 38110 ft 446 kts 218°
2026-04-20 20:14 47.71286 13.12786 38110 ft 445 kts 218°
2026-04-20 20:15 47.66091 13.07863 38109 ft 445 kts 218°
2026-04-20 20:15 47.60873 13.02929 38105 ft 444 kts 218°
2026-04-20 20:16 47.55683 12.98024 38097 ft 444 kts 218°
2026-04-20 20:16 47.50478 12.93120 38090 ft 443 kts 218°
2026-04-20 20:17 47.45267 12.88226 38086 ft 443 kts 218°
2026-04-20 20:17 47.40093 12.83376 38077 ft 442 kts 218°
2026-04-20 20:18 47.34894 12.78522 38082 ft 442 kts 218°
2026-04-20 20:18 47.29682 12.73657 38071 ft 442 kts 218°
2026-04-20 20:19 47.24504 12.68830 38073 ft 443 kts 217°
2026-04-20 20:19 47.19262 12.63972 38063 ft 443 kts 217°
2026-04-20 20:20 47.14037 12.59138 38049 ft 443 kts 217°
2026-04-20 20:20 47.08844 12.54335 38037 ft 443 kts 217°
2026-04-20 20:21 47.03626 12.49523 38027 ft 443 kts 217°
2026-04-20 20:21 46.98402 12.44721 38025 ft 444 kts 217°
2026-04-20 20:22 46.93201 12.39945 38026 ft 444 kts 217°
2026-04-20 20:22 46.87953 12.35145 38025 ft 444 kts 217°
2026-04-20 20:23 46.82716 12.30369 38016 ft 443 kts 217°
2026-04-20 20:23 46.77797 12.25138 38019 ft 438 kts 225°
2026-04-20 20:24 46.73108 12.19449 38019 ft 438 kts 225°
2026-04-20 20:24 46.68400 12.13797 37557 ft 436 kts 225°
2026-04-20 20:25 46.66061 12.10996 37100 ft 434 kts 225°
2026-04-20 20:25 46.63720 12.08186 36987 ft 434 kts 225°
2026-04-20 20:25 46.59075 12.02606 37006 ft 436 kts 225°
2026-04-20 20:26 46.54401 11.96995 36989 ft 435 kts 225°
2026-04-20 20:26 46.49726 11.91402 36966 ft 435 kts 225°
2026-04-20 20:27 46.45056 11.85848 36951 ft 435 kts 225°
2026-04-20 20:27 46.40375 11.80281 36948 ft 434 kts 225°
2026-04-20 20:28 46.35710 11.74735 36940 ft 434 kts 225°
2026-04-20 20:28 46.31037 11.69209 36942 ft 434 kts 225°
2026-04-20 20:29 46.26378 11.63722 36945 ft 433 kts 225°
2026-04-20 20:29 46.21706 11.58221 36950 ft 432 kts 225°
2026-04-20 20:30 46.17054 11.52744 36977 ft 432 kts 225°
2026-04-20 20:30 46.12380 11.47250 36981 ft 432 kts 225°
2026-04-20 20:31 46.07706 11.41784 36987 ft 432 kts 225°
2026-04-20 20:31 46.03072 11.36380 36982 ft 430 kts 225°
2026-04-20 20:32 45.98410 11.30947 36979 ft 431 kts 225°
2026-04-20 20:32 45.93737 11.25513 36974 ft 431 kts 225°
2026-04-20 20:33 45.89104 11.20140 36964 ft 430 kts 225°
2026-04-20 20:33 45.84440 11.14747 36953 ft 430 kts 225°
2026-04-20 20:34 45.79773 11.09363 36948 ft 431 kts 225°
2026-04-20 20:34 45.75115 11.03996 36942 ft 430 kts 225°
2026-04-20 20:35 45.70439 10.98617 36931 ft 430 kts 225°
2026-04-20 20:35 45.65775 10.93261 36923 ft 429 kts 225°
2026-04-20 20:36 45.61140 10.87953 36921 ft 430 kts 225°
2026-04-20 20:36 45.56462 10.82607 36917 ft 430 kts 225°
2026-04-20 20:37 45.51794 10.77294 36911 ft 429 kts 225°
2026-04-20 20:37 45.47129 10.71986 36910 ft 429 kts 225°
2026-04-20 20:38 45.42465 10.66689 36909 ft 429 kts 225°
2026-04-20 20:38 45.37819 10.61429 36916 ft 428 kts 225°
2026-04-20 20:39 45.33146 10.56146 36918 ft 428 kts 225°
2026-04-20 20:39 45.28467 10.50879 36909 ft 428 kts 225°
2026-04-20 20:40 45.23791 10.45623 36912 ft 428 kts 225°
2026-04-20 20:40 45.19117 10.40375 36913 ft 429 kts 225°
2026-04-20 20:41 45.14432 10.35127 36901 ft 429 kts 225°
2026-04-20 20:41 45.09776 10.29917 36900 ft 429 kts 225°
2026-04-20 20:42 45.05078 10.24679 36899 ft 429 kts 225°
2026-04-20 20:42 45.00382 10.19454 36895 ft 429 kts 225°
2026-04-20 20:43 44.95678 10.14233 36902 ft 429 kts 225°
2026-04-20 20:43 44.90999 10.09057 36907 ft 429 kts 225°
2026-04-20 20:44 44.86294 10.03853 36904 ft 429 kts 225°
2026-04-20 20:44 44.81622 9.98690 36909 ft 429 kts 225°
2026-04-20 20:45 44.76925 9.93506 36909 ft 429 kts 225°
2026-04-20 20:45 44.72212 9.88341 36917 ft 429 kts 225°
2026-04-20 20:46 44.67534 9.83215 36925 ft 428 kts 225°
2026-04-20 20:46 44.62832 9.78063 36927 ft 428 kts 225°
2026-04-20 20:47 44.58122 9.72922 36936 ft 429 kts 225°
2026-04-20 20:47 44.53428 9.67820 36937 ft 429 kts 224°
2026-04-20 20:48 44.48711 9.62685 36936 ft 428 kts 224°
2026-04-20 20:48 44.44018 9.57588 36937 ft 429 kts 224°
2026-04-20 20:49 44.39295 9.52485 36935 ft 429 kts 224°
2026-04-20 20:49 44.34562 9.47374 36934 ft 429 kts 224°
2026-04-20 20:50 44.29872 9.42307 36933 ft 429 kts 224°
2026-04-20 20:50 44.25135 9.37207 36932 ft 429 kts 224°
2026-04-20 20:51 44.20389 9.32123 36938 ft 429 kts 224°
2026-04-20 20:51 44.15645 9.27048 36940 ft 429 kts 224°
2026-04-20 20:52 44.10932 9.22007 36940 ft 429 kts 224°
2026-04-20 20:52 44.06183 9.16937 36943 ft 429 kts 224°
2026-04-20 20:53 44.01466 9.11913 36944 ft 429 kts 224°
2026-04-20 20:53 43.96725 9.06879 36946 ft 429 kts 223°
2026-04-20 20:54 43.91971 9.01841 36946 ft 429 kts 224°
2026-04-20 20:54 43.87225 8.96811 36946 ft 429 kts 224°
2026-04-20 20:55 43.82498 8.91820 36945 ft 429 kts 223°
2026-04-20 20:55 43.77747 8.86813 36941 ft 429 kts 223°
2026-04-20 20:56 43.72992 8.81819 36939 ft 429 kts 223°
2026-04-20 20:56 43.68259 8.76848 36939 ft 429 kts 223°
2026-04-20 20:57 43.63062 8.72639 36934 ft 443 kts 206°
2026-04-20 20:57 43.60054 8.71521 36932 ft 453 kts 195°
2026-04-20 20:57 43.56876 8.71183 36932 ft 461 kts 186°
2026-04-20 20:58 43.53679 8.70946 36919 ft 451 kts 199°
2026-04-20 20:58 43.50850 8.69470 36930 ft 434 kts 216°
2026-04-20 20:58 43.45773 8.65034 36927 ft 437 kts 213°
2026-04-20 20:59 43.40328 8.61244 36930 ft 438 kts 213°
2026-04-20 20:59 43.34989 8.57249 36920 ft 430 kts 224°
2026-04-20 21:00 43.30540 8.51852 36932 ft 426 kts 228°
2026-04-20 21:00 43.26160 8.46440 36931 ft 426 kts 228°
2026-04-20 21:01 43.21740 8.40995 36931 ft 427 kts 227°
2026-04-20 21:01 43.18044 8.36467 36926 ft 427 kts 227°
2026-04-20 21:02 43.12886 8.30154 36924 ft 428 kts 227°
2026-04-20 21:02 43.09183 8.25626 36938 ft 428 kts 227°
2026-04-20 21:03 43.04731 8.20197 36943 ft 429 kts 227°
2026-04-20 21:03 43.00267 8.14760 36952 ft 429 kts 227°
2026-04-20 21:04 42.95802 8.09342 36945 ft 429 kts 227°
2026-04-20 21:04 42.91352 8.03963 36945 ft 429 kts 227°
2026-04-20 21:05 42.86874 7.98556 36947 ft 430 kts 227°
2026-04-20 21:05 42.82396 7.93144 36944 ft 430 kts 227°
2026-04-20 21:06 42.77917 7.87746 36943 ft 430 kts 227°
2026-04-20 21:06 42.73450 7.82371 36948 ft 430 kts 227°
2026-04-20 21:07 42.68949 7.76977 36949 ft 430 kts 227°
2026-04-20 21:07 42.64442 7.71586 36946 ft 431 kts 226°
2026-04-20 21:08 42.59964 7.66239 36947 ft 431 kts 226°
2026-04-20 21:08 42.55440 7.60853 36949 ft 431 kts 226°
2026-04-20 21:09 42.50948 7.55508 36951 ft 431 kts 226°
2026-04-20 21:09 42.46428 7.50135 36950 ft 432 kts 226°
2026-04-20 21:10 42.41919 7.44795 36952 ft 432 kts 226°
2026-04-20 21:10 42.37383 7.39431 36955 ft 432 kts 226°
2026-04-20 21:11 42.32839 7.34077 36951 ft 433 kts 226°
2026-04-20 21:11 42.28296 7.28726 36956 ft 433 kts 226°
2026-04-20 21:12 42.23779 7.23407 36958 ft 433 kts 225°
2026-04-20 21:12 42.19223 7.18066 36966 ft 434 kts 225°
2026-04-20 21:13 42.14658 7.12731 36964 ft 434 kts 225°
2026-04-20 21:13 42.10094 7.07397 36977 ft 434 kts 225°
2026-04-20 21:14 42.05570 7.02113 36976 ft 434 kts 225°
2026-04-20 21:14 42.01010 6.96790 36973 ft 433 kts 225°
2026-04-20 21:15 41.96546 6.91355 36976 ft 433 kts 226°
2026-04-20 21:15 41.92123 6.85849 36980 ft 433 kts 226°
2026-04-20 21:16 41.87688 6.80376 36982 ft 433 kts 226°
2026-04-20 21:16 41.83235 6.74929 36986 ft 433 kts 226°
2026-04-20 21:17 41.78793 6.69538 36984 ft 433 kts 226°
2026-04-20 21:17 41.74312 6.64111 36988 ft 433 kts 226°
2026-04-20 21:18 41.69846 6.58684 36984 ft 433 kts 226°
2026-04-20 21:18 41.65407 6.53295 36991 ft 433 kts 226°
2026-04-20 21:19 41.60926 6.47883 36993 ft 433 kts 226°
2026-04-20 21:20 41.54240 6.39816 36992 ft 434 kts 226°
2026-04-20 21:20 41.49754 6.34423 36993 ft 434 kts 226°
2026-04-20 21:21 41.45273 6.29038 36992 ft 434 kts 226°
2026-04-20 21:21 41.40776 6.23647 36993 ft 434 kts 226°
2026-04-20 21:22 41.36275 6.18270 36994 ft 434 kts 226°
2026-04-20 21:22 41.31799 6.12925 36994 ft 435 kts 226°
2026-04-20 21:23 41.27281 6.07548 36999 ft 435 kts 226°
2026-04-20 21:23 41.22769 6.02186 37000 ft 435 kts 226°
2026-04-20 21:24 41.18276 5.96859 37002 ft 435 kts 226°
2026-04-20 21:24 41.13762 5.91506 37002 ft 435 kts 226°
2026-04-20 21:25 41.09240 5.86155 37004 ft 435 kts 226°
2026-04-20 21:25 41.04742 5.80844 37005 ft 435 kts 226°
2026-04-20 21:26 41.00216 5.75505 37007 ft 435 kts 226°
2026-04-20 21:26 40.95694 5.70153 37008 ft 434 kts 229°
2026-04-20 21:27 40.91992 5.63981 37011 ft 427 kts 239°
2026-04-20 21:27 40.88559 5.57556 37010 ft 427 kts 238°
2026-04-20 21:28 40.85137 5.51182 37012 ft 427 kts 238°
2026-04-20 21:28 40.81689 5.44783 37010 ft 427 kts 238°
2026-04-20 21:29 40.78236 5.38383 36741 ft 427 kts 238°
2026-04-20 21:29 40.76513 5.35192 36483 ft 426 kts 238°
2026-04-20 21:29 40.74812 5.32041 36232 ft 426 kts 238°
2026-04-20 21:29 40.73091 5.28854 35969 ft 426 kts 238°
2026-04-20 21:30 40.71368 5.25666 35713 ft 426 kts 238°
2026-04-20 21:30 40.69643 5.22479 35462 ft 426 kts 238°
2026-04-20 21:30 40.67921 5.19300 35211 ft 426 kts 238°
2026-04-20 21:30 40.66197 5.16119 34961 ft 426 kts 238°
2026-04-20 21:31 40.64493 5.12980 34718 ft 426 kts 238°
2026-04-20 21:31 40.62765 5.09804 34412 ft 427 kts 238°
2026-04-20 21:31 40.61021 5.06604 33482 ft 431 kts 238°
2026-04-20 21:31 40.59262 5.03377 32485 ft 433 kts 238°
2026-04-20 21:32 40.57498 5.00145 31524 ft 435 kts 238°
2026-04-20 21:32 40.55726 4.96905 30604 ft 437 kts 238°
2026-04-20 21:32 40.53945 4.93655 29638 ft 439 kts 238°
2026-04-20 21:32 40.52154 4.90385 28604 ft 442 kts 238°
2026-04-20 21:33 40.50373 4.87130 27623 ft 444 kts 238°
2026-04-20 21:33 40.48571 4.83844 26662 ft 441 kts 238°
2026-04-20 21:33 40.46780 4.80590 25738 ft 438 kts 237°
2026-04-20 21:33 40.45002 4.77363 24840 ft 435 kts 237°
2026-04-20 21:34 40.43233 4.74150 23969 ft 432 kts 237°
2026-04-20 21:34 40.41475 4.70954 23033 ft 429 kts 237°
2026-04-20 21:34 40.39727 4.67776 22035 ft 428 kts 237°
2026-04-20 21:34 40.38008 4.64651 21090 ft 426 kts 237°
2026-04-20 21:35 40.36272 4.61506 20165 ft 424 kts 236°
2026-04-20 21:35 40.34534 4.58367 19263 ft 423 kts 236°
2026-04-20 21:35 40.32808 4.55251 18391 ft 421 kts 236°
2026-04-20 21:35 40.31089 4.52148 17413 ft 419 kts 236°
2026-04-20 21:36 40.29379 4.49061 16457 ft 418 kts 236°
2026-04-20 21:36 40.27697 4.46027 15538 ft 417 kts 236°
2026-04-20 21:36 40.25989 4.42953 14634 ft 416 kts 236°
2026-04-20 21:36 40.24290 4.39900 13750 ft 415 kts 236°
2026-04-20 21:37 40.22593 4.36851 12782 ft 413 kts 235°
2026-04-20 21:37 40.20906 4.33817 12053 ft 408 kts 235°
2026-04-20 21:37 40.19268 4.30885 11786 ft 390 kts 235°
2026-04-20 21:37 40.17674 4.28038 11537 ft 392 kts 235°
2026-04-20 21:38 40.16054 4.25143 11295 ft 395 kts 235°
2026-04-20 21:38 40.14433 4.22247 11048 ft 394 kts 235°
2026-04-20 21:38 40.12815 4.19358 10797 ft 393 kts 235°
2026-04-20 21:38 40.11199 4.16473 10554 ft 392 kts 235°
2026-04-20 21:39 40.09591 4.13605 10327 ft 391 kts 235°
2026-04-20 21:39 40.07985 4.10740 10086 ft 390 kts 234°
2026-04-20 21:39 40.06408 4.07933 9888 ft 388 kts 234°
2026-04-20 21:39 40.04811 4.05092 9759 ft 388 kts 234°
2026-04-20 21:40 40.03211 4.02247 9628 ft 387 kts 234°
2026-04-20 21:40 40.01613 3.99413 9497 ft 387 kts 234°
2026-04-20 21:40 40.00017 3.96588 9368 ft 386 kts 234°
2026-04-20 21:40 39.98419 3.93764 9239 ft 386 kts 234°
2026-04-20 21:41 39.96826 3.90948 9111 ft 385 kts 234°
2026-04-20 21:41 39.95254 3.88167 8981 ft 385 kts 234°
2026-04-20 21:41 39.93664 3.85357 8860 ft 384 kts 234°
2026-04-20 21:41 39.92078 3.82561 8722 ft 383 kts 234°
2026-04-20 21:42 39.90495 3.79768 8600 ft 383 kts 234°
2026-04-20 21:42 39.88909 3.76980 8475 ft 383 kts 234°
2026-04-20 21:42 39.87323 3.74190 8343 ft 382 kts 234°
2026-04-20 21:42 39.85744 3.71406 8221 ft 382 kts 234°
2026-04-20 21:43 39.84167 3.68628 8085 ft 381 kts 234°
2026-04-20 21:43 39.82592 3.65857 7975 ft 381 kts 234°
2026-04-20 21:43 39.81035 3.63130 7855 ft 380 kts 234°
2026-04-20 21:43 39.79508 3.60305 7723 ft 379 kts 240°
2026-04-20 21:44 39.78543 3.57132 7606 ft 378 kts 254°
2026-04-20 21:44 39.77808 3.53852 7483 ft 378 kts 254°
2026-04-20 21:44 39.77079 3.50569 7358 ft 377 kts 254°
2026-04-20 21:44 39.76355 3.47297 7237 ft 377 kts 254°
2026-04-20 21:45 39.75630 3.44018 7115 ft 377 kts 254°
2026-04-20 21:45 39.74902 3.40743 7000 ft 376 kts 254°
2026-04-20 21:45 39.74174 3.37480 6878 ft 375 kts 254°
2026-04-20 21:45 39.73455 3.34266 6758 ft 375 kts 254°
2026-04-20 21:46 39.72737 3.31063 6635 ft 357 kts 254°
2026-04-20 21:46 39.72067 3.28072 6515 ft 334 kts 254°
2026-04-20 21:46 39.71438 3.25256 6397 ft 314 kts 254°
2026-04-20 21:46 39.70845 3.22608 6274 ft 297 kts 254°
2026-04-20 21:47 39.70280 3.20096 6147 ft 282 kts 253°
2026-04-20 21:47 39.69739 3.17703 6021 ft 276 kts 253°
2026-04-20 21:47 39.69199 3.15308 5577 ft 278 kts 253°
2026-04-20 21:47 39.68658 3.12902 5169 ft 274 kts 253°
2026-04-20 21:48 39.68125 3.10531 4831 ft 269 kts 253°
2026-04-20 21:48 39.67605 3.08231 4456 ft 264 kts 253°
2026-04-20 21:48 39.67097 3.05995 4174 ft 257 kts 253°
2026-04-20 21:48 39.66602 3.03821 4038 ft 244 kts 253°
2026-04-20 21:49 39.66127 3.01731 3924 ft 232 kts 253°
2026-04-20 21:49 39.65690 2.99799 3821 ft 220 kts 253°
2026-04-20 21:49 39.65264 2.97918 3731 ft 215 kts 253°
2026-04-20 21:49 39.64834 2.96065 3611 ft 213 kts 250°
2026-04-20 21:50 39.64137 2.94358 3245 ft 215 kts 237°
2026-04-20 21:50 39.63343 2.92715 2935 ft 210 kts 237°
2026-04-20 21:50 39.62609 2.91170 2684 ft 196 kts 238°
2026-04-20 21:50 39.61927 2.89723 2419 ft 181 kts 237°
2026-04-20 21:51 39.61301 2.88392 2198 ft 165 kts 237°
2026-04-20 21:51 39.60722 2.87160 1991 ft 154 kts 237°
2026-04-20 21:51 39.60197 2.86045 1796 ft 137 kts 237°
2026-04-20 21:51 39.59713 2.85016 1617 ft 131 kts 237°
2026-04-20 21:52 39.59401 2.84354 1494 ft 129 kts 237°
2026-04-20 21:52 39.58934 2.83364 1325 ft 128 kts 237°
2026-04-20 21:52 39.58472 2.82384 1161 ft 127 kts 237°
2026-04-20 21:52 39.58010 2.81404 994 ft 127 kts 238°
2026-04-20 21:53 39.57555 2.80439 822 ft 127 kts 238°
2026-04-20 21:53 39.57096 2.79465 650 ft 127 kts 239°
2026-04-20 21:53 39.56630 2.78489 476 ft 126 kts 238°
2026-04-20 21:53 39.56172 2.77518 312 ft 126 kts 239°
2026-04-20 21:54 39.55720 2.76545 135 ft 126 kts 238°
2026-04-20 21:54 39.55280 2.75612 30 ft 109 kts 238°
2026-04-20 21:54 39.55021 2.75067 30 ft 52 kts 238°
2026-04-20 21:54 39.54859 2.74699 29 ft 37 kts 243°
2026-04-20 21:55 39.54804 2.74434 30 ft 29 kts 263°
2026-04-20 21:55 39.54803 2.74262 30 ft 9 kts 269°
2026-04-20 21:55 39.54803 2.74227 30 ft 3 kts 270°
2026-04-20 21:55 39.54803 2.74226 30 ft 1 kts 270°
2026-04-20 21:56 39.54803 2.74194 30 ft 6 kts 270°
2026-04-20 21:56 39.54786 2.74122 30 ft 11 kts 238°
2026-04-20 21:56 39.54740 2.74023 30 ft 15 kts 238°
2026-04-20 21:56 39.54684 2.73904 30 ft 16 kts 239°
2026-04-20 21:57 39.54624 2.73773 30 ft 18 kts 238°
2026-04-20 21:57 39.54601 2.73642 30 ft 13 kts 307°
2026-04-20 21:57 39.54678 2.73604 30 ft 11 kts 334°
2026-04-20 21:57 39.54735 2.73559 30 ft 9 kts 328°
2026-04-20 21:58 39.54779 2.73563 30 ft 6 kts 44°
2026-04-20 21:58 39.54794 2.73594 30 ft 0 kts 59°
2026-04-20 21:58 39.54796 2.73598 30 ft 2 kts 58°
2026-04-20 21:58 39.54800 2.73606 30 ft 3 kts 58°
2026-04-20 21:59 39.54803 2.73612 30 ft 0 kts 58°